When you browse on this site, cookies collect data to enhance your experience and personalize the content and advertising you see.
Visit our Privacy Policy to learn more. By continuing to use the site, you agree to this use of cookies and data.
  • En España
  • Lista de países
  • Para 7 días
  • Temperatura del agua
  • Mapa Satelital
  • El tiempo en el mapa
  • Informadores
  • user-avatar
    Iniciar sesión

    Tiempo cada hora Osiek

    Hoy, 22 Abril, Lunes

    Tiempo Temperatura Precipitaciones Viento Presión Humedad
    00:00 +12°C° 0 mm 2 mps 755 mmHg 56%
    01:00 +11°C° 0 mm 1 mps 755 mmHg 59%
    02:00 +11°C° 0 mm 1 mps 754 mmHg 61%
    03:00 +11°C° 0 mm 1 mps 754 mmHg 63%
    04:00 +10°C° 0 mm 1 mps 754 mmHg 65%
    05:00 +11°C° 0 mm 1 mps 754 mmHg 65%
    06:00 +12°C° 0 mm 2 mps 754 mmHg 64%
    07:00 +13°C° 0 mm 2 mps 753 mmHg 64%
    08:00 +15°C° 0 mm 2 mps 753 mmHg 58%
    09:00 +18°C° 0 mm 2 mps 753 mmHg 51%
    10:00 +20°C° 0 mm 2 mps 753 mmHg 45%
    11:00 +21°C° 0 mm 2 mps 752 mmHg 42%
    12:00 +23°C° 0 mm 2 mps 752 mmHg 38%
    13:00 +23°C° 0 mm 2 mps 751 mmHg 35%
    14:00 +24°C° 0 mm 2 mps 751 mmHg 36%
    15:00 +24°C° 0 mm 3 mps 751 mmHg 36%
    16:00 +24°C° 0 mm 3 mps 750 mmHg 37%
    17:00 +21°C° 0 mm 3 mps 750 mmHg 43%
    18:00 +19°C° 0 mm 3 mps 750 mmHg 49%
    19:00 +17°C° 0 mm 3 mps 750 mmHg 55%
    20:00 +15°C° 0 mm 4 mps 750 mmHg 59%
    21:00 +14°C° 0 mm 5 mps 750 mmHg 64%
    22:00 +14°C° 0 mm 6 mps 751 mmHg 68%
    23:00 +13°C° 0 mm 6 mps 751 mmHg 69%

    Mañana, 23 Abril, Martes

    Tiempo Temperatura Precipitaciones Viento Presión Humedad
    00:00 +13°C° 0 mm 6 mps 751 mmHg 70%
    01:00 +13°C° 0 mm 6 mps 751 mmHg 71%
    02:00 +11°C° 0.2 mm 6 mps 751 mmHg 74%
    03:00 +11°C° 0.2 mm 6 mps 750 mmHg 77%
    04:00 +11°C° 0.2 mm 6 mps 750 mmHg 80%
    05:00 +11°C° 0.8 mm 7 mps 750 mmHg 82%
    06:00 +10°C° 0.8 mm 8 mps 750 mmHg 84%
    07:00 +10°C° 0.8 mm 8 mps 750 mmHg 86%
    08:00 +11°C° 0 mm 9 mps 751 mmHg 80%
    09:00 +12°C° 0 mm 9 mps 751 mmHg 74%
    10:00 +14°C° 0 mm 10 mps 751 mmHg 68%
    11:00 +16°C° 0 mm 10 mps 751 mmHg 65%
    12:00 +17°C° 0 mm 10 mps 750 mmHg 62%
    13:00 +19°C° 0 mm 10 mps 750 mmHg 59%
    14:00 +18°C° 0 mm 10 mps 750 mmHg 60%
    15:00 +18°C° 0 mm 10 mps 750 mmHg 61%
    16:00 +18°C° 0 mm 10 mps 749 mmHg 62%
    17:00 +17°C° 0.1 mm 9 mps 750 mmHg 65%
    18:00 +15°C° 0.1 mm 9 mps 750 mmHg 68%
    19:00 +13°C° 0.1 mm 9 mps 750 mmHg 71%
    20:00 +13°C° 0 mm 8 mps 750 mmHg 72%
    21:00 +13°C° 0 mm 8 mps 751 mmHg 73%
    22:00 +12°C° 0 mm 8 mps 751 mmHg 74%
    23:00 +12°C° 0 mm 7 mps 752 mmHg 76%

    Pasado mañana, 24 Abril, Miércoles

    Tiempo Temperatura Precipitaciones Viento Presión Humedad
    00:00 +12°C° 0 mm 7 mps 752 mmHg 78%
    01:00 +11°C° 0 mm 7 mps 752 mmHg 79%
    02:00 +11°C° 0 mm 6 mps 752 mmHg 80%
    03:00 +11°C° 0 mm 6 mps 752 mmHg 80%
    04:00 +12°C° 0 mm 5 mps 753 mmHg 81%
    05:00 +13°C° 0 mm 5 mps 753 mmHg 79%
    06:00 +13°C° 0 mm 6 mps 753 mmHg 77%
    07:00 +14°C° 0 mm 6 mps 754 mmHg 76%
    08:00 +16°C° 0 mm 6 mps 754 mmHg 69%
    09:00 +20°C° 0 mm 5 mps 754 mmHg 63%
    10:00 +22°C° 0 mm 5 mps 754 mmHg 56%
    11:00 +23°C° 0.1 mm 5 mps 754 mmHg 54%
    12:00 +25°C° 0.1 mm 5 mps 754 mmHg 52%
    13:00 +26°C° 0.1 mm 4 mps 754 mmHg 49%
    14:00 +26°C° 0 mm 4 mps 754 mmHg 50%
    15:00 +26°C° 0 mm 3 mps 754 mmHg 50%
    16:00 +26°C° 0 mm 3 mps 754 mmHg 51%
    17:00 +23°C° 0.4 mm 4 mps 754 mmHg 59%
    18:00 +21°C° 0.4 mm 4 mps 754 mmHg 68%
    19:00 +19°C° 0.4 mm 5 mps 754 mmHg 76%
    20:00 +18°C° 0 mm 4 mps 754 mmHg 80%
    21:00 +17°C° 0 mm 4 mps 755 mmHg 83%
    22:00 +14°C° 0 mm 3 mps 755 mmHg 87%
    23:00 +14°C° 0 mm 3 mps 755 mmHg 87%

    25 Abril, Jueves

    Tiempo Temperatura Precipitaciones Viento Presión Humedad
    00:00 +13°C° 0 mm 3 mps 755 mmHg 87%
    01:00 +14°C° 0 mm 2 mps 755 mmHg 87%
    02:00 +14°C° 0 mm 2 mps 756 mmHg 86%
    03:00 +13°C° 0 mm 2 mps 756 mmHg 86%
    04:00 +13°C° 0 mm 2 mps 756 mmHg 86%
    05:00 +14°C° 0 mm 2 mps 756 mmHg 82%
    06:00 +15°C° 0 mm 2 mps 756 mmHg 79%
    07:00 +16°C° 0 mm 2 mps 757 mmHg 76%
    08:00 +18°C° 0 mm 2 mps 757 mmHg 68%
    09:00 +21°C° 0 mm 2 mps 757 mmHg 60%
    10:00 +24°C° 0 mm 2 mps 757 mmHg 52%
    11:00 +25°C° 0 mm 3 mps 756 mmHg 48%
    12:00 +26°C° 0 mm 3 mps 756 mmHg 44%
    13:00 +28°C° 0 mm 3 mps 756 mmHg 41%
    14:00 +28°C° 0 mm 3 mps 755 mmHg 41%
    15:00 +28°C° 0 mm 3 mps 755 mmHg 42%
    16:00 +28°C° 0 mm 3 mps 755 mmHg 43%
    17:00 +26°C° 0 mm 3 mps 755 mmHg 51%
    18:00 +22°C° 0 mm 3 mps 755 mmHg 58%
    19:00 +20°C° 0 mm 3 mps 755 mmHg 66%
    20:00 +19°C° 0 mm 3 mps 755 mmHg 71%
    21:00 +19°C° 0 mm 4 mps 755 mmHg 76%
    22:00 +18°C° 0 mm 4 mps 755 mmHg 80%
    23:00 +17°C° 0 mm 4 mps 755 mmHg 83%

    26 Abril, Viernes

    Tiempo Temperatura Precipitaciones Viento Presión Humedad
    00:00 +16°C° 0 mm 3 mps 755 mmHg 86%
    01:00 +16°C° 0 mm 3 mps 755 mmHg 89%
    02:00 +14°C° 0 mm 3 mps 755 mmHg 90%
    03:00 +15°C° 0 mm 2 mps 755 mmHg 91%
    04:00 +15°C° 0 mm 2 mps 755 mmHg 92%
    05:00 +16°C° 0 mm 2 mps 755 mmHg 87%
    06:00 +17°C° 0 mm 2 mps 754 mmHg 82%
    07:00 +18°C° 0 mm 2 mps 754 mmHg 78%
    08:00 +20°C° 0 mm 2 mps 754 mmHg 69%
    09:00 +23°C° 0 mm 2 mps 754 mmHg 61%
    10:00 +25°C° 0 mm 2 mps 754 mmHg 53%
    11:00 +26°C° 0 mm 2 mps 753 mmHg 49%
    12:00 +27°C° 0 mm 2 mps 753 mmHg 45%
    13:00 +28°C° 0 mm 2 mps 753 mmHg 41%
    14:00 +29°C° 0 mm 2 mps 752 mmHg 40%
    15:00 +29°C° 0 mm 1 mps 752 mmHg 40%
    16:00 +29°C° 0 mm 1 mps 752 mmHg 39%
    17:00 +26°C° 1.8 mm 2 mps 752 mmHg 52%
    18:00 +24°C° 1.8 mm 3 mps 752 mmHg 64%
    19:00 +20°C° 1.8 mm 4 mps 752 mmHg 77%
    20:00 +19°C° 1.1 mm 3 mps 752 mmHg 80%
    21:00 +18°C° 1.1 mm 3 mps 753 mmHg 82%
    22:00 +17°C° 1.1 mm 2 mps 754 mmHg 85%
    23:00 +14°C° 0 mm 3 mps 754 mmHg 84%

    27 Abril, Sábado

    Tiempo Temperatura Precipitaciones Viento Presión Humedad
    00:00 +13°C° 0 mm 4 mps 755 mmHg 82%
    01:00 +10°C° 0 mm 5 mps 755 mmHg 81%
    02:00 +11°C° 0.4 mm 4 mps 755 mmHg 82%
    03:00 +11°C° 0.4 mm 4 mps 756 mmHg 83%
    04:00 +10°C° 0.4 mm 3 mps 756 mmHg 84%
    05:00 +10°C° 1.9 mm 3 mps 756 mmHg 85%
    06:00 +10°C° 1.9 mm 4 mps 757 mmHg 86%
    07:00 +10°C° 1.9 mm 4 mps 757 mmHg 88%
    08:00 +11°C° 0.3 mm 4 mps 757 mmHg 83%
    09:00 +12°C° 0.3 mm 5 mps 758 mmHg 79%
    10:00 +13°C° 0.3 mm 5 mps 758 mmHg 74%
    11:00 +14°C° 0.1 mm 5 mps 758 mmHg 70%
    12:00 +15°C° 0.1 mm 5 mps 758 mmHg 66%
    13:00 +16°C° 0.1 mm 5 mps 758 mmHg 62%
    14:00 +16°C° 0.3 mm 5 mps 758 mmHg 65%
    15:00 +17°C° 0.3 mm 4 mps 757 mmHg 67%
    16:00 +17°C° 0.3 mm 4 mps 757 mmHg 70%
    17:00 +16°C° 0.1 mm 3 mps 757 mmHg 72%
    18:00 +14°C° 0.1 mm 3 mps 757 mmHg 73%
    19:00 +14°C° 0.1 mm 3 mps 758 mmHg 75%
    20:00 +13°C° 0 mm 3 mps 758 mmHg 76%
    21:00 +12°C° 0 mm 3 mps 758 mmHg 77%
    22:00 +12°C° 0 mm 3 mps 758 mmHg 77%
    23:00 +11°C° 0 mm 3 mps 758 mmHg 79%
    Mostrar más